Lihue, HI

6:24 AM HST on December 07, 2016 (GMT -1000)
Lihue

Weather History for PHLI - December, 2013

Change the Weather History Date:

Thursday, December 19, 2013

  Actual Average Record
Temperature  
Mean Temperature 76 °F 73 °F  
Max Temperature 80 °F 79 °F 84 °F (1980)
Min Temperature 71 °F 67 °F 59 °F (1954)
Degree Days  
Heating Degree Days 0 0  
Month to date heating degree days 0 0  
Since 1 July heating degree days 0 0  
Cooling Degree Days 11 8  
Month to date cooling degree days 178 163  
Year to date cooling degree days 3603 3854  
Growing Degree Days 26 (Base 50)    
Moisture  
Dew Point 68 °F    
Average Humidity 80    
Maximum Humidity 90    
Minimum Humidity 69    
Precipitation  
Precipitation T in 0.19 in 3.48 in (1955)
Month to date precipitation 5.05 3.18  
Year to date precipitation 36.48 35.03  
Snow  
Snow 0.00 in - - ()
Month to date snowfall 0.0  
Since 1 July snowfall 0.0  
Snow Depth 0.00 in    
Sea Level Pressure  
Sea Level Pressure 30.03 in    
Wind  
Wind Speed 13 mph (East)    
Max Wind Speed 18 mph    
Max Gust Speed 22 mph    
Visibility 10 miles    
Events Rain    
T = Trace of Precipitation, MM = Missing Value Source: NWS Daily Summary

Daily Weather History Graph

Daily Weather History Graph

Search for Another Location

Airport or City:

Trip Planner

Search our weather history database for the weather conditions in past years. The results will help you decide how hot, cold, wet, or windy it might be!

Date:

Astronomy

Dec. 19, 2013 Rise Set
Actual Time 7:10 AM HST 5:58 PM HST
Civil Twilight 6:46 AM HST 6:22 PM HST
Nautical Twilight 6:18 AM HST 6:50 PM HST
Astronomical Twilight 5:51 AM HST 7:18 PM HST
Moon 8:19 PM HST (12/19) 8:50 AM HST (12/19)
Length of Visible Light 11h 36m
Length of Day
10h 47m
Waning Gibbous, 94% of the Moon is Illuminated
Dec 19
Waning Gibbous
Dec 25
Last Quarter
Jan 1
New
Jan 7
First Quarter
Jan 15
Full

Hourly Weather History & Observations

Time (HST) Temp. Heat Index Dew Point Humidity Pressure Visibility Wind Dir Wind Speed Gust Speed Precip Events Conditions
12:53 AM 73.0 °F - 66.9 °F 81% 30.03 in 10.0 mi ENE 15.0 mph - N/A   Mostly Cloudy
1:53 AM 73.0 °F - 66.9 °F 81% 30.01 in 10.0 mi ENE 11.5 mph - 0.00 in   Mostly Cloudy
2:53 AM 73.0 °F - 66.0 °F 79% 30.01 in 10.0 mi East 16.1 mph - N/A   Mostly Cloudy
3:53 AM 73.0 °F - 66.9 °F 81% 30.01 in 10.0 mi East 12.7 mph - N/A   Mostly Cloudy
4:10 AM 73.4 °F - 68.0 °F 83% 30.01 in 10.0 mi East 15.0 mph - N/A   Mostly Cloudy
4:37 AM 71.6 °F - 68.0 °F 88% 30.02 in 9.0 mi East 13.8 mph - 0.00 in Rain Light Rain
4:53 AM 71.1 °F - 66.9 °F 87% 30.01 in 10.0 mi East 17.3 mph - 0.00 in   Overcast
5:53 AM 72.0 °F - 66.9 °F 84% 30.01 in 10.0 mi East 18.4 mph - N/A   Mostly Cloudy
6:53 AM 72.0 °F - 68.0 °F 87% 30.02 in 10.0 mi ENE 18.4 mph 27.6 mph 0.00 in   Mostly Cloudy
7:03 AM 73.4 °F - 66.2 °F 78% 30.02 in 10.0 mi East 19.6 mph - N/A   Overcast
7:06 AM 73.4 °F - 66.2 °F 78% 30.03 in 10.0 mi East 18.4 mph 25.3 mph N/A   Mostly Cloudy
7:53 AM 73.9 °F - 69.1 °F 85% 30.04 in 10.0 mi ESE 17.3 mph - 0.00 in Rain Light Rain
8:53 AM 75.0 °F - 69.1 °F 82% 30.07 in 10.0 mi ESE 13.8 mph - 0.00 in   Mostly Cloudy
9:53 AM 77.0 °F - 69.1 °F 76% 30.07 in 10.0 mi SSE 13.8 mph - N/A   Mostly Cloudy
10:53 AM 77.0 °F - 69.1 °F 76% 30.07 in 10.0 mi SE 5.8 mph - N/A   Partly Cloudy
11:53 AM 78.1 °F - 70.0 °F 76% 30.06 in 10.0 mi East 6.9 mph - N/A   Partly Cloudy
12:53 PM 80.1 °F 82.9 °F 69.1 °F 69% 30.03 in 10.0 mi East 11.5 mph - N/A   Scattered Clouds
1:51 PM 78.8 °F - 69.8 °F 74% 30.01 in 10.0 mi East 9.2 mph - N/A   Mostly Cloudy
1:53 PM 78.1 °F - 69.1 °F 74% 30.00 in 10.0 mi East 10.4 mph - N/A   Mostly Cloudy
2:13 PM 78.8 °F - 69.8 °F 74% 30.00 in 10.0 mi East 10.4 mph - N/A   Scattered Clouds
2:53 PM 79.0 °F - 69.1 °F 72% 29.99 in 10.0 mi East 10.4 mph - N/A   Clear
3:53 PM 77.0 °F - 68.0 °F 74% 29.99 in 10.0 mi East 10.4 mph - N/A   Mostly Cloudy
4:16 PM 75.2 °F - 68.0 °F 78% 30.00 in 10.0 mi East 12.7 mph - N/A   Scattered Clouds
4:42 PM 75.2 °F - 68.0 °F 78% 30.01 in 10.0 mi East 15.0 mph - N/A   Mostly Cloudy
4:49 PM 75.2 °F - 68.0 °F 78% 30.01 in 10.0 mi East 15.0 mph - N/A   Scattered Clouds
4:53 PM 75.9 °F - 69.1 °F 79% 30.01 in 10.0 mi East 15.0 mph - N/A   Partly Cloudy
5:53 PM 75.0 °F - 69.1 °F 82% 30.01 in 10.0 mi East 16.1 mph - N/A   Clear
6:53 PM 75.0 °F - 69.1 °F 82% 30.03 in 10.0 mi East 16.1 mph - N/A   Clear
7:53 PM 73.9 °F - 69.1 °F 85% 30.05 in 10.0 mi East 15.0 mph - N/A   Clear
8:53 PM 75.0 °F - 69.1 °F 82% 30.06 in 10.0 mi East 9.2 mph - N/A   Mostly Cloudy
9:53 PM 75.0 °F - 69.1 °F 82% 30.06 in 10.0 mi ENE 11.5 mph - N/A   Unknown
10:04 PM 75.2 °F - 69.8 °F 83% 30.06 in 10.0 mi ENE 11.5 mph - N/A   Mostly Cloudy
10:18 PM 75.2 °F - 69.8 °F 83% 30.06 in 10.0 mi ENE 18.4 mph - N/A   Scattered Clouds
10:53 PM 75.0 °F - 68.0 °F 79% 30.06 in 10.0 mi East 15.0 mph - N/A   Partly Cloudy
11:53 PM 73.9 °F - 69.1 °F 85% 30.04 in 10.0 mi East 13.8 mph - N/A   Scattered Clouds